Location: Göttingen
(51.5413°N, 9.9158°E)
Time: 08:05:29
(UTC+02:00)

Envisat - Pass Details

Date: 30 January 2022
Orbit: 764 x 765 km, 98.2° (Epoch: 25 May)

Event Time Altitude Azimuth Distance (km) Brightness Sun altitude
Rises 06:05:53 0° 10° (N) 3,245 6.3 -18.0°
Reaches altitude 10° 06:08:16 10° 5° (N) 2,314 5.5 -17.6°
Maximum altitude 06:13:07 47° 293° (WNW) 1,015 3.2 -16.9°
Drops below altitude 10° 06:17:57 10° 221° (SW) 2,300 5.2 -16.1°
Sets 06:20:19 0° 215° (SW) 3,222 6.0 -15.8°
